Time,TemperatureF,DewpointF,PressureIn,WindDirection,WindDirectionDegrees,WindSpeedMPH,WindSpeedGustMPH,Humidity,HourlyPrecipIn,Conditions,Clouds,dailyrainin,SoftwareType,DateUTC
2013-02-19 00:02:00,54.0,32.0,29.99,East,82,3.0,10.0,43,0.00,,,0.00,,2013-02-19 06:02:00,
2013-02-19 00:11:00,54.0,32.0,29.99,East,82,3.0,10.0,43,0.00,,,0.00,,2013-02-19 06:11:00,
2013-02-19 00:21:00,53.0,32.0,29.98,East,97,5.0,7.0,44,0.00,,,0.00,,2013-02-19 06:21:00,
2013-02-19 00:32:00,53.0,32.0,29.98,ENE,77,3.0,9.0,45,0.00,,,0.00,,2013-02-19 06:32:00,
2013-02-19 00:42:00,53.0,32.0,29.98,ENE,77,3.0,9.0,45,0.00,,,0.00,,2013-02-19 06:42:00,
2013-02-19 00:52:00,52.0,32.0,29.98,ESE,117,2.0,5.0,46,0.00,,,0.00,,2013-02-19 06:52:00,
2013-02-19 01:01:00,51.0,32.0,29.99,SE,129,3.0,6.0,48,0.00,,,0.00,,2013-02-19 07:01:00,
2013-02-19 01:11:00,51.0,32.0,29.99,SE,129,3.0,6.0,48,0.00,,,0.00,,2013-02-19 07:11:00,
2013-02-19 01:22:00,50.0,32.0,29.99,East,101,2.0,5.0,49,0.00,,,0.00,,2013-02-19 07:22:00,
2013-02-19 01:32:00,50.0,32.0,30.00,ESE,117,1.0,4.0,49,0.00,,,0.00,,2013-02-19 07:32:00,
2013-02-19 01:42:00,50.0,32.0,30.00,ESE,117,1.0,4.0,49,0.00,,,0.00,,2013-02-19 07:42:00,
2013-02-19 01:52:00,50.0,32.0,30.00,East,98,3.0,5.0,50,0.00,,,0.00,,2013-02-19 07:52:00,
2013-02-19 02:02:00,50.0,32.0,30.00,SE,129,5.0,7.0,50,0.00,,,0.00,,2013-02-19 08:02:00,
2013-02-19 02:11:00,50.0,32.0,30.00,SE,129,5.0,7.0,50,0.00,,,0.00,,2013-02-19 08:11:00,
2013-02-19 02:21:00,50.0,31.0,29.99,SE,142,7.0,12.0,48,0.00,,,0.00,,2013-02-19 08:21:00,
2013-02-19 02:31:00,50.0,31.0,30.01,West,262,0.0,4.0,48,0.00,,,0.00,,2013-02-19 08:31:00,
2013-02-19 02:42:00,50.0,31.0,30.01,West,262,0.0,4.0,48,0.00,,,0.00,,2013-02-19 08:42:00,
2013-02-19 02:52:00,49.0,31.0,30.01,ESE,120,2.0,5.0,50,0.00,,,0.00,,2013-02-19 08:52:00,
2013-02-19 03:01:00,49.0,31.0,30.01,SE,129,2.0,4.0,49,0.00,,,0.00,,2013-02-19 09:01:00,
2013-02-19 03:11:00,49.0,31.0,30.01,SE,129,2.0,4.0,49,0.00,,,0.00,,2013-02-19 09:11:00,
2013-02-19 03:21:00,49.0,30.0,30.03,ENE,74,2.0,5.0,48,0.00,,,0.00,,2013-02-19 09:21:00,
2013-02-19 03:32:00,49.0,30.0,30.03,ESE,103,3.0,5.0,48,0.00,,,0.00,,2013-02-19 09:32:00,
2013-02-19 03:42:00,49.0,30.0,30.03,ESE,103,3.0,5.0,48,0.00,,,0.00,,2013-02-19 09:42:00,
2013-02-19 03:52:00,49.0,30.0,30.03,East,86,3.0,6.0,48,0.00,,,0.00,,2013-02-19 09:52:00,
2013-02-19 04:02:00,48.0,30.0,30.03,ENE,77,3.0,7.0,49,0.00,,,0.00,,2013-02-19 10:02:00,
2013-02-19 04:11:00,48.0,30.0,30.03,ENE,77,3.0,7.0,49,0.00,,,0.00,,2013-02-19 10:11:00,
2013-02-19 04:21:00,48.0,30.0,30.04,SE,131,2.0,6.0,49,0.00,,,0.00,,2013-02-19 10:21:00,
2013-02-19 04:32:00,47.0,29.0,30.05,SE,129,3.0,6.0,50,0.00,,,0.00,,2013-02-19 10:32:00,
2013-02-19 04:42:00,47.0,29.0,30.05,SE,129,3.0,6.0,50,0.00,,,0.00,,2013-02-19 10:42:00,
2013-02-19 04:51:00,47.0,30.0,30.06,South,183,0.0,5.0,51,0.00,,,0.00,,2013-02-19 10:51:00,
2013-02-19 05:01:00,46.0,30.0,30.06,SSW,198,0.0,3.0,53,0.00,,,0.00,,2013-02-19 11:01:00,
2013-02-19 05:11:00,46.0,30.0,30.06,SSW,198,0.0,3.0,53,0.00,,,0.00,,2013-02-19 11:11:00,
2013-02-19 05:22:00,45.0,29.0,30.07,SSE,148,0.0,2.0,54,0.00,,,0.00,,2013-02-19 11:22:00,
2013-02-19 05:32:00,44.0,29.0,30.06,SSE,153,1.0,3.0,55,0.00,,,0.00,,2013-02-19 11:32:00,
2013-02-19 05:42:00,44.0,29.0,30.06,SSE,153,1.0,3.0,55,0.00,,,0.00,,2013-02-19 11:42:00,
2013-02-19 05:52:00,44.0,29.0,30.07,SSE,150,1.0,3.0,56,0.00,,,0.00,,2013-02-19 11:52:00,
2013-02-19 06:01:00,44.0,29.0,30.08,SSE,153,0.0,1.0,56,0.00,,,0.00,,2013-02-19 12:01:00,
2013-02-19 06:12:00,44.0,29.0,30.08,SSE,153,0.0,1.0,56,0.00,,,0.00,,2013-02-19 12:12:00,
2013-02-19 06:22:00,44.0,30.0,30.09,South,181,0.0,1.0,57,0.00,,,0.00,,2013-02-19 12:22:00,
2013-02-19 06:32:00,43.0,29.0,30.10,ESE,109,0.0,0.0,58,0.00,,,0.00,,2013-02-19 12:32:00,
2013-02-19 06:42:00,43.0,29.0,30.10,ESE,109,0.0,0.0,58,0.00,,,0.00,,2013-02-19 12:42:00,
2013-02-19 06:52:00,43.0,29.0,30.10,ESE,117,0.0,1.0,58,0.00,,,0.00,,2013-02-19 12:52:00,
2013-02-19 07:02:00,43.0,30.0,30.11,SE,134,0.0,0.0,59,0.00,,,0.00,,2013-02-19 13:02:00,
2013-02-19 07:11:00,43.0,30.0,30.11,SE,134,0.0,0.0,59,0.00,,,0.00,,2013-02-19 13:11:00,
2013-02-19 07:22:00,42.0,29.0,30.11,SE,134,0.0,1.0,60,0.00,,,0.00,,2013-02-19 13:22:00,
2013-02-19 07:32:00,42.0,30.0,30.12,SE,134,0.0,0.0,61,0.00,,,0.00,,2013-02-19 13:32:00,
2013-02-19 07:41:00,42.0,30.0,30.12,SE,134,0.0,0.0,61,0.00,,,0.00,,2013-02-19 13:41:00,
2013-02-19 07:52:00,43.0,30.0,30.13,SE,132,0.0,0.0,61,0.00,,,0.00,,2013-02-19 13:52:00,
2013-02-19 08:01:00,43.0,30.0,30.14,SE,131,0.0,0.0,61,0.00,,,0.00,,2013-02-19 14:01:00,
2013-02-19 08:11:00,43.0,30.0,30.14,SE,131,0.0,0.0,61,0.00,,,0.00,,2013-02-19 14:11:00,
2013-02-19 08:21:00,44.0,31.0,30.14,SSW,194,0.0,0.0,60,0.00,,,0.00,,2013-02-19 14:21:00,
2013-02-19 08:32:00,46.0,32.0,30.15,East,98,0.0,2.0,59,0.00,,,0.00,,2013-02-19 14:32:00,
2013-02-19 08:42:00,46.0,32.0,30.15,East,98,0.0,2.0,59,0.00,,,0.00,,2013-02-19 14:42:00,
2013-02-19 08:52:00,47.0,33.0,30.15,ESE,115,0.0,2.0,58,0.00,,,0.00,,2013-02-19 14:52:00,
2013-02-19 09:01:00,49.0,33.0,30.16,SE,129,3.0,6.0,53,0.00,,,0.00,,2013-02-19 15:01:00,
2013-02-19 09:11:00,49.0,33.0,30.16,SE,129,3.0,6.0,53,0.00,,,0.00,,2013-02-19 15:11:00,
2013-02-19 09:21:00,50.0,32.0,30.16,SE,126,6.0,10.0,49,0.00,,,0.00,,2013-02-19 15:21:00,
2013-02-19 09:32:00,51.0,31.0,30.16,SE,131,6.0,15.0,47,0.00,,,0.00,,2013-02-19 15:32:00,
2013-02-19 09:42:00,51.0,31.0,30.16,SE,131,6.0,15.0,47,0.00,,,0.00,,2013-02-19 15:42:00,
2013-02-19 09:52:00,52.0,31.0,30.15,South,176,6.0,14.0,44,0.00,,,0.00,,2013-02-19 15:52:00,
2013-02-19 10:01:00,52.0,30.0,30.15,ESE,120,10.0,15.0,42,0.00,,,0.00,,2013-02-19 16:01:00,
2013-02-19 10:11:00,52.0,30.0,30.15,ESE,120,10.0,15.0,42,0.00,,,0.00,,2013-02-19 16:11:00,
2013-02-19 10:21:00,53.0,31.0,30.16,ESE,117,8.0,15.0,42,0.00,,,0.00,,2013-02-19 16:21:00,
2013-02-19 10:32:00,53.0,31.0,30.16,ESE,117,8.0,15.0,42,0.00,,,0.00,,2013-02-19 16:32:00,
2013-02-19 10:41:00,53.0,31.0,30.16,ESE,117,8.0,15.0,42,0.00,,,0.00,,2013-02-19 16:41:00,
2013-02-19 10:52:00,54.0,31.0,30.16,SE,128,8.0,13.0,42,0.00,,,0.00,,2013-02-19 16:52:00,
2013-02-19 11:01:00,55.0,32.0,30.16,SE,129,6.0,13.0,41,0.00,,,0.00,,2013-02-19 17:01:00,
2013-02-19 11:11:00,55.0,32.0,30.16,SE,129,6.0,13.0,41,0.00,,,0.00,,2013-02-19 17:11:00,
2013-02-19 11:21:00,56.0,30.0,30.18,ESE,114,9.0,14.0,37,0.00,,,0.00,,2013-02-19 17:21:00,
2013-02-19 11:32:00,57.0,30.0,30.17,SE,145,5.0,14.0,36,0.00,,,0.00,,2013-02-19 17:32:00,
2013-02-19 11:41:00,57.0,30.0,30.17,SE,145,5.0,14.0,36,0.00,,,0.00,,2013-02-19 17:41:00,
2013-02-19 11:52:00,57.0,31.0,30.17,ENE,78,5.0,15.0,37,0.00,,,0.00,,2013-02-19 17:52:00,
2013-02-19 12:01:00,58.0,31.0,30.17,SE,125,5.0,13.0,35,0.00,,,0.00,,2013-02-19 18:01:00,
2013-02-19 12:11:00,58.0,31.0,30.17,SE,125,5.0,13.0,35,0.00,,,0.00,,2013-02-19 18:11:00,
2013-02-19 12:21:00,59.0,30.0,30.16,ESE,117,6.0,12.0,33,0.00,,,0.00,,2013-02-19 18:21:00,
2013-02-19 12:31:00,59.0,28.0,30.15,SE,134,8.0,14.0,30,0.00,,,0.00,,2013-02-19 18:31:00,
2013-02-19 12:42:00,58.0,28.0,30.14,ESE,103,5.0,14.0,32,0.00,,,0.00,,2013-02-19 18:42:00,
2013-02-19 12:52:00,58.0,28.0,30.14,ESE,103,5.0,14.0,32,0.00,,,0.00,,2013-02-19 18:52:00,
2013-02-19 13:01:00,60.0,29.0,30.14,ENE,78,7.0,12.0,31,0.00,,,0.00,,2013-02-19 19:01:00,
2013-02-19 13:11:00,60.0,29.0,30.14,ENE,78,7.0,12.0,31,0.00,,,0.00,,2013-02-19 19:11:00,
2013-02-19 13:21:00,60.0,30.0,30.12,ESE,117,7.0,13.0,32,0.00,,,0.00,,2013-02-19 19:21:00,
2013-02-19 13:32:00,61.0,28.0,30.11,SSE,166,7.0,15.0,28,0.00,,,0.00,,2013-02-19 19:32:00,
2013-02-19 13:42:00,61.0,28.0,30.11,SSE,166,7.0,15.0,28,0.00,,,0.00,,2013-02-19 19:42:00,
2013-02-19 13:52:00,62.0,28.0,30.11,SE,134,3.0,13.0,27,0.00,,,0.00,,2013-02-19 19:52:00,
2013-02-19 14:01:00,62.0,27.0,30.09,South,177,5.0,19.0,26,0.00,,,0.00,,2013-02-19 20:01:00,
2013-02-19 14:12:00,62.0,27.0,30.09,South,177,5.0,19.0,26,0.00,,,0.00,,2013-02-19 20:12:00,
2013-02-19 14:21:00,64.0,27.0,30.08,ESE,122,3.0,9.0,25,0.00,,,0.00,,2013-02-19 20:21:00,
2013-02-19 14:32:00,64.0,27.0,30.07,SE,131,5.0,16.0,25,0.00,,,0.00,,2013-02-19 20:32:00,
2013-02-19 14:42:00,64.0,27.0,30.07,SE,131,5.0,16.0,25,0.00,,,0.00,,2013-02-19 20:42:00,
2013-02-19 14:52:00,64.0,27.0,30.06,SSE,168,3.0,15.0,25,0.00,,,0.00,,2013-02-19 20:52:00,
2013-02-19 15:02:00,64.0,26.0,30.05,South,188,3.0,16.0,24,0.00,,,0.00,,2013-02-19 21:02:00,
2013-02-19 15:11:00,64.0,26.0,30.05,South,188,3.0,16.0,24,0.00,,,0.00,,2013-02-19 21:11:00,
2013-02-19 15:21:00,65.0,27.0,30.04,ENE,75,5.0,16.0,24,0.00,,,0.00,,2013-02-19 21:21:00,
2013-02-19 15:32:00,65.0,26.0,30.03,East,99,11.0,17.0,23,0.00,,,0.00,,2013-02-19 21:32:00,
2013-02-19 15:42:00,65.0,26.0,30.03,East,99,11.0,17.0,23,0.00,,,0.00,,2013-02-19 21:42:00,
2013-02-19 15:52:00,65.0,26.0,30.03,SE,139,6.0,12.0,23,0.00,,,0.00,,2013-02-19 21:52:00,
2013-02-19 16:02:00,65.0,24.0,30.03,ESE,120,4.0,11.0,21,0.00,,,0.00,,2013-02-19 22:02:00,
2013-02-19 16:11:00,65.0,24.0,30.03,ESE,120,4.0,11.0,21,0.00,,,0.00,,2013-02-19 22:11:00,
2013-02-19 16:21:00,64.0,23.0,30.02,SSE,156,6.0,15.0,21,0.00,,,0.00,,2013-02-19 22:21:00,
2013-02-19 16:32:00,63.0,24.0,30.02,SSE,167,3.0,16.0,22,0.00,,,0.00,,2013-02-19 22:32:00,
2013-02-19 16:41:00,63.0,24.0,30.02,SSE,167,3.0,16.0,22,0.00,,,0.00,,2013-02-19 22:41:00,
2013-02-19 16:52:00,63.0,24.0,30.01,WSW,245,5.0,14.0,22,0.00,,,0.00,,2013-02-19 22:52:00,
2013-02-19 17:01:00,63.0,24.0,30.02,SE,141,4.0,9.0,22,0.00,,,0.00,,2013-02-19 23:01:00,
2013-02-19 17:11:00,63.0,24.0,30.02,SE,141,4.0,9.0,22,0.00,,,0.00,,2013-02-19 23:11:00,
2013-02-19 17:21:00,62.0,25.0,30.02,SE,132,3.0,9.0,24,0.00,,,0.00,,2013-02-19 23:21:00,
2013-02-19 17:32:00,62.0,24.0,30.02,SE,136,4.0,10.0,23,0.00,,,0.00,,2013-02-19 23:32:00,
2013-02-19 17:41:00,62.0,24.0,30.02,SE,136,4.0,10.0,23,0.00,,,0.00,,2013-02-19 23:41:00,
2013-02-19 17:52:00,61.0,23.0,30.02,SE,134,5.0,10.0,23,0.00,,,0.00,,2013-02-19 23:52:00,
2013-02-19 18:01:00,61.0,24.0,30.02,South,188,3.0,12.0,24,0.00,,,0.00,,2013-02-20 00:01:00,
2013-02-19 18:11:00,61.0,24.0,30.02,South,188,3.0,12.0,24,0.00,,,0.00,,2013-02-20 00:11:00,
2013-02-19 18:21:00,60.0,25.0,30.02,SSE,160,2.0,9.0,26,0.00,,,0.00,,2013-02-20 00:21:00,
2013-02-19 18:31:00,60.0,26.0,30.02,SSW,211,3.0,10.0,27,0.00,,,0.00,,2013-02-20 00:31:00,
2013-02-19 18:42:00,60.0,26.0,30.02,SSW,211,3.0,10.0,27,0.00,,,0.00,,2013-02-20 00:42:00,
2013-02-19 18:52:00,59.0,26.0,30.01,ESE,120,3.0,9.0,28,0.00,,,0.00,,2013-02-20 00:52:00,
2013-02-19 19:02:00,59.0,27.0,30.01,SSE,148,3.0,8.0,29,0.00,,,0.00,,2013-02-20 01:02:00,
2013-02-19 19:11:00,59.0,27.0,30.01,SSE,148,3.0,8.0,29,0.00,,,0.00,,2013-02-20 01:11:00,
2013-02-19 19:21:00,59.0,28.0,30.02,SE,129,2.0,8.0,30,0.00,,,0.00,,2013-02-20 01:21:00,
2013-02-19 19:32:00,59.0,28.0,30.02,ESE,122,3.0,7.0,31,0.00,,,0.00,,2013-02-20 01:32:00,
2013-02-19 19:42:00,59.0,28.0,30.02,ESE,122,3.0,7.0,31,0.00,,,0.00,,2013-02-20 01:42:00,
2013-02-19 19:52:00,59.0,29.0,30.03,South,172,2.0,6.0,32,0.00,,,0.00,,2013-02-20 01:52:00,
2013-02-19 20:01:00,58.0,29.0,30.02,ESE,111,3.0,8.0,33,0.00,,,0.00,,2013-02-20 02:01:00,
2013-02-19 20:11:00,58.0,29.0,30.02,ESE,111,3.0,8.0,33,0.00,,,0.00,,2013-02-20 02:11:00,
2013-02-19 20:21:00,58.0,30.0,30.03,SSW,201,2.0,6.0,34,0.00,,,0.00,,2013-02-20 02:21:00,
2013-02-19 20:31:00,58.0,31.0,30.02,SE,143,2.0,7.0,35,0.00,,,0.00,,2013-02-20 02:31:00,
2013-02-19 20:42:00,58.0,31.0,30.02,SE,143,2.0,7.0,35,0.00,,,0.00,,2013-02-20 02:42:00,
2013-02-19 20:52:00,57.0,30.0,30.01,SW,229,2.0,10.0,35,0.00,,,0.00,,2013-02-20 02:52:00,
2013-02-19 21:01:00,57.0,30.0,30.03,SSW,200,3.0,10.0,35,0.00,,,0.00,,2013-02-20 03:01:00,
2013-02-19 21:12:00,57.0,30.0,30.03,SSW,200,3.0,10.0,35,0.00,,,0.00,,2013-02-20 03:12:00,
2013-02-19 21:22:00,57.0,30.0,30.03,SSE,148,3.0,7.0,35,0.00,,,0.00,,2013-02-20 03:22:00,
2013-02-19 21:32:00,57.0,30.0,30.01,SW,236,4.0,9.0,36,0.00,,,0.00,,2013-02-20 03:32:00,
2013-02-19 21:41:00,57.0,30.0,30.01,SW,236,4.0,9.0,36,0.00,,,0.00,,2013-02-20 03:41:00,
2013-02-19 21:52:00,57.0,30.0,30.00,ESE,111,3.0,8.0,36,0.00,,,0.00,,2013-02-20 03:52:00,
2013-02-19 22:01:00,57.0,30.0,30.01,South,178,5.0,11.0,36,0.00,,,0.00,,2013-02-20 04:01:00,
2013-02-19 22:11:00,57.0,30.0,30.01,South,178,5.0,11.0,36,0.00,,,0.00,,2013-02-20 04:11:00,
2013-02-19 22:21:00,57.0,31.0,30.01,SE,143,4.0,9.0,37,0.00,,,0.00,,2013-02-20 04:21:00,
2013-02-19 22:31:00,57.0,32.0,30.00,SE,132,3.0,11.0,38,0.00,,,0.00,,2013-02-20 04:31:00,
2013-02-19 22:41:00,57.0,32.0,30.00,SE,132,3.0,11.0,38,0.00,,,0.00,,2013-02-20 04:41:00,
2013-02-19 22:52:00,56.0,31.0,30.01,South,191,4.0,11.0,39,0.00,,,0.00,,2013-02-20 04:52:00,
2013-02-19 23:02:00,56.0,31.0,30.01,SW,218,4.0,13.0,39,0.00,,,0.00,,2013-02-20 05:02:00,
2013-02-19 23:12:00,56.0,31.0,30.01,SW,218,4.0,13.0,39,0.00,,,0.00,,2013-02-20 05:12:00,
2013-02-19 23:22:00,56.0,31.0,30.02,SSW,205,3.0,10.0,39,0.00,,,0.00,,2013-02-20 05:22:00,
2013-02-19 23:32:00,56.0,31.0,30.02,SSE,157,4.0,7.0,38,0.00,,,0.00,,2013-02-20 05:32:00,
2013-02-19 23:43:00,56.0,31.0,30.02,SSE,157,4.0,7.0,38,0.00,,,0.00,,2013-02-20 05:43:00,
2013-02-19 23:52:00,56.0,31.0,30.02,SE,141,3.0,9.0,38,0.00,,,0.00,,2013-02-20 05:52:00,